Time,TemperatureF,DewpointF,PressureIn,WindDirection,WindDirectionDegrees,WindSpeedMPH,WindSpeedGustMPH,Humidity,HourlyPrecipIn,Conditions,Clouds,dailyrainin,SoftwareType,DateUTC
2013-03-21 00:03:00,117.6,-99.9,-100.00,WNW,292,2.0,9.0,-999,0.00,,,-99.99,WeatherLink 5.4,2013-03-21 04:03:00,
2013-03-21 00:33:00,117.5,-99.9,-100.00,NW,315,4.0,13.0,-999,0.00,,,-99.99,WeatherLink 5.4,2013-03-21 04:33:00,
2013-03-21 00:38:00,117.5,-99.9,-100.00,NW,315,4.0,13.0,-999,0.00,,,-99.99,WeatherLink 5.4,2013-03-21 04:38:00,
2013-03-21 00:48:00,117.5,-99.9,-100.00,NW,315,4.0,13.0,-999,0.00,,,-99.99,WeatherLink 5.4,2013-03-21 04:48:00,
2013-03-21 00:53:00,117.5,-99.9,-100.00,NW,315,4.0,13.0,-999,0.00,,,-99.99,WeatherLink 5.4,2013-03-21 04:53:00,
2013-03-21 00:58:00,117.5,-99.9,-100.00,NW,315,4.0,13.0,-999,0.00,,,-99.99,WeatherLink 5.4,2013-03-21 04:58:00,
2013-03-21 01:03:00,117.5,-99.9,-100.00,NW,315,4.0,13.0,-999,0.00,,,-99.99,WeatherLink 5.4,2013-03-21 05:03:00,
2013-03-21 01:13:00,117.6,-99.9,-100.00,WNW,292,3.0,9.0,-999,0.00,,,-99.99,WeatherLink 5.4,2013-03-21 05:13:00,
2013-03-21 01:18:00,117.6,-99.9,-100.00,WNW,292,3.0,9.0,-999,0.00,,,-99.99,WeatherLink 5.4,2013-03-21 05:18:00,
2013-03-21 01:28:00,117.6,-99.9,-100.00,WNW,292,3.0,9.0,-999,0.00,,,-99.99,WeatherLink 5.4,2013-03-21 05:28:00,
2013-03-21 01:33:00,117.6,-99.9,-100.00,WNW,292,3.0,9.0,-999,0.00,,,-99.99,WeatherLink 5.4,2013-03-21 05:33:00,
2013-03-21 01:43:00,117.6,-99.9,-100.00,West,270,2.0,8.0,-999,0.00,,,-99.99,WeatherLink 5.4,2013-03-21 05:43:00,
2013-03-21 01:48:00,117.6,-99.9,-100.00,West,270,2.0,8.0,-999,0.00,,,-99.99,WeatherLink 5.4,2013-03-21 05:48:00,
2013-03-21 01:58:00,117.6,-99.9,-100.00,West,270,2.0,8.0,-999,0.00,,,-99.99,WeatherLink 5.4,2013-03-21 05:58:00,
2013-03-21 02:03:00,117.6,-99.9,-100.00,West,270,2.0,8.0,-999,0.00,,,-99.99,WeatherLink 5.4,2013-03-21 06:03:00,
2013-03-21 02:08:00,117.3,-99.9,-100.00,West,270,2.0,10.0,-999,0.00,,,-99.99,WeatherLink 5.4,2013-03-21 06:08:00,
2013-03-21 02:18:00,117.3,-99.9,-100.00,West,270,2.0,10.0,-999,0.00,,,-99.99,WeatherLink 5.4,2013-03-21 06:18:00,
2013-03-21 02:23:00,117.3,-99.9,-100.00,West,270,2.0,10.0,-999,0.00,,,-99.99,WeatherLink 5.4,2013-03-21 06:23:00,
2013-03-21 02:33:00,117.3,-99.9,-100.00,West,270,2.0,10.0,-999,0.00,,,-99.99,WeatherLink 5.4,2013-03-21 06:33:00,
2013-03-21 02:43:00,117.3,-99.9,-100.00,WNW,292,3.0,9.0,-999,0.00,,,-99.99,WeatherLink 5.4,2013-03-21 06:43:00,
2013-03-21 02:48:00,117.3,-99.9,-100.00,WNW,292,3.0,9.0,-999,0.00,,,-99.99,WeatherLink 5.4,2013-03-21 06:48:00,
2013-03-21 02:58:00,117.3,-99.9,-100.00,WNW,292,3.0,9.0,-999,0.00,,,-99.99,WeatherLink 5.4,2013-03-21 06:58:00,
2013-03-21 03:08:00,117.3,-99.9,-100.00,West,270,3.0,7.0,-999,0.01,,,-99.99,WeatherLink 5.4,2013-03-21 07:08:00,
2013-03-21 03:18:00,117.3,-99.9,-100.00,West,270,3.0,7.0,-999,0.01,,,-99.99,WeatherLink 5.4,2013-03-21 07:18:00,
2013-03-21 03:28:00,117.3,-99.9,-100.00,West,270,3.0,7.0,-999,0.01,,,-99.99,WeatherLink 5.4,2013-03-21 07:28:00,
2013-03-21 03:33:00,117.4,-99.9,-100.00,West,270,2.0,7.0,-999,0.01,,,-99.99,WeatherLink 5.4,2013-03-21 07:33:00,
2013-03-21 03:43:00,117.4,-99.9,-100.00,West,270,2.0,7.0,-999,0.01,,,-99.99,WeatherLink 5.4,2013-03-21 07:43:00,
2013-03-21 03:48:00,117.4,-99.9,-100.00,West,270,2.0,7.0,-999,0.01,,,-99.99,WeatherLink 5.4,2013-03-21 07:48:00,
2013-03-21 03:58:00,117.4,-99.9,-100.00,West,270,2.0,7.0,-999,0.01,,,-99.99,WeatherLink 5.4,2013-03-21 07:58:00,
2013-03-21 04:03:00,117.4,-99.9,-100.00,West,270,2.0,7.0,-999,0.01,,,-99.99,WeatherLink 5.4,2013-03-21 08:03:00,
2013-03-21 04:13:00,117.4,-99.9,-100.00,West,270,2.0,7.0,-999,0.00,,,-99.99,WeatherLink 5.4,2013-03-21 08:13:00,
2013-03-21 04:18:00,117.4,-99.9,-100.00,West,270,2.0,7.0,-999,0.00,,,-99.99,WeatherLink 5.4,2013-03-21 08:18:00,
2013-03-21 04:28:00,117.4,-99.9,-100.00,West,270,2.0,7.0,-999,0.00,,,-99.99,WeatherLink 5.4,2013-03-21 08:28:00,
2013-03-21 04:33:00,117.4,-99.9,-100.00,West,270,2.0,7.0,-999,0.00,,,-99.99,WeatherLink 5.4,2013-03-21 08:33:00,
2013-03-21 04:43:00,116.8,-99.9,-100.00,West,270,2.0,7.0,-999,0.00,,,-99.99,WeatherLink 5.4,2013-03-21 08:43:00,
2013-03-21 04:53:00,116.8,-99.9,-100.00,West,270,2.0,7.0,-999,0.00,,,-99.99,WeatherLink 5.4,2013-03-21 08:53:00,
2013-03-21 05:03:00,116.8,-99.9,-100.00,West,270,2.0,7.0,-999,0.00,,,-99.99,WeatherLink 5.4,2013-03-21 09:03:00,
2013-03-21 05:13:00,116.1,-99.9,-100.00,WSW,247,3.0,8.0,-999,0.00,,,-99.99,WeatherLink 5.4,2013-03-21 09:13:00,
2013-03-21 05:23:00,116.1,-99.9,-100.00,WSW,247,3.0,8.0,-999,0.00,,,-99.99,WeatherLink 5.4,2013-03-21 09:23:00,
2013-03-21 05:28:00,116.1,-99.9,-100.00,WSW,247,3.0,8.0,-999,0.00,,,-99.99,WeatherLink 5.4,2013-03-21 09:28:00,
2013-03-21 05:33:00,116.1,-99.9,-100.00,WSW,247,3.0,8.0,-999,0.00,,,-99.99,WeatherLink 5.4,2013-03-21 09:33:00,
2013-03-21 05:43:00,116.1,-99.9,-100.00,West,270,3.0,8.0,-999,0.00,,,-99.99,WeatherLink 5.4,2013-03-21 09:43:00,
2013-03-21 05:53:00,116.1,-99.9,-100.00,West,270,3.0,8.0,-999,0.00,,,-99.99,WeatherLink 5.4,2013-03-21 09:53:00,
2013-03-21 06:03:00,116.1,-99.9,-100.00,West,270,3.0,8.0,-999,0.00,,,-99.99,WeatherLink 5.4,2013-03-21 10:03:00,
2013-03-21 06:13:00,115.6,-99.9,-100.00,West,270,3.0,8.0,-999,0.00,,,-99.99,WeatherLink 5.4,2013-03-21 10:13:00,
2013-03-21 06:23:00,115.6,-99.9,-100.00,West,270,3.0,8.0,-999,0.00,,,-99.99,WeatherLink 5.4,2013-03-21 10:23:00,
2013-03-21 06:33:00,115.6,-99.9,-100.00,West,270,3.0,8.0,-999,0.00,,,-99.99,WeatherLink 5.4,2013-03-21 10:33:00,
2013-03-21 06:43:00,116.4,-99.9,-100.00,West,270,3.0,8.0,-999,0.00,,,-99.99,WeatherLink 5.4,2013-03-21 10:43:00,
2013-03-21 06:53:00,116.4,-99.9,-100.00,West,270,3.0,8.0,-999,0.00,,,-99.99,WeatherLink 5.4,2013-03-21 10:53:00,
2013-03-21 06:58:00,116.4,-99.9,-100.00,West,270,3.0,8.0,-999,0.00,,,-99.99,WeatherLink 5.4,2013-03-21 10:58:00,
2013-03-21 07:03:00,116.4,-99.9,-100.00,West,270,3.0,8.0,-999,0.00,,,-99.99,WeatherLink 5.4,2013-03-21 11:03:00,
2013-03-21 07:13:00,116.5,-99.9,-100.00,WSW,247,3.0,10.0,-999,0.00,,,-99.99,WeatherLink 5.4,2013-03-21 11:13:00,
2013-03-21 07:23:00,116.5,-99.9,-100.00,WSW,247,3.0,10.0,-999,0.00,,,-99.99,WeatherLink 5.4,2013-03-21 11:23:00,
2013-03-21 07:28:00,116.5,-99.9,-100.00,WSW,247,3.0,10.0,-999,0.00,,,-99.99,WeatherLink 5.4,2013-03-21 11:28:00,
2013-03-21 07:33:00,116.5,-99.9,-100.00,WSW,247,3.0,10.0,-999,0.00,,,-99.99,WeatherLink 5.4,2013-03-21 11:33:00,
2013-03-21 07:43:00,116.4,-99.9,-100.00,WSW,247,4.0,10.0,-999,0.00,,,-99.99,WeatherLink 5.4,2013-03-21 11:43:00,
2013-03-21 07:48:00,116.4,-99.9,-100.00,WSW,247,4.0,10.0,-999,0.00,,,-99.99,WeatherLink 5.4,2013-03-21 11:48:00,
2013-03-21 07:58:00,116.4,-99.9,-100.00,WSW,247,4.0,10.0,-999,0.00,,,-99.99,WeatherLink 5.4,2013-03-21 11:58:00,
2013-03-21 08:08:00,116.4,-99.9,-100.00,West,270,3.0,7.0,-999,0.00,,,-99.99,WeatherLink 5.4,2013-03-21 12:08:00,
2013-03-21 08:18:00,116.4,-99.9,-100.00,West,270,3.0,7.0,-999,0.00,,,-99.99,WeatherLink 5.4,2013-03-21 12:18:00,
2013-03-21 08:28:00,116.4,-99.9,-100.00,West,270,3.0,7.0,-999,0.00,,,-99.99,WeatherLink 5.4,2013-03-21 12:28:00,
2013-03-21 08:33:00,116.4,-99.9,-100.00,West,270,3.0,7.0,-999,0.00,,,-99.99,WeatherLink 5.4,2013-03-21 12:33:00,
2013-03-21 08:43:00,114.1,-99.9,-100.00,West,270,2.0,8.0,-999,0.00,,,-99.99,WeatherLink 5.4,2013-03-21 12:43:00,
2013-03-21 08:53:00,114.1,-99.9,-100.00,West,270,2.0,8.0,-999,0.00,,,-99.99,WeatherLink 5.4,2013-03-21 12:53:00,
2013-03-21 08:59:00,114.1,-99.9,-100.00,West,270,2.0,8.0,-999,0.00,,,-99.99,WeatherLink 5.4,2013-03-21 12:59:00,
2013-03-21 09:08:00,112.4,-99.9,-100.00,West,270,3.0,10.0,-999,0.00,,,-99.99,WeatherLink 5.4,2013-03-21 13:08:00,
2013-03-21 09:13:00,112.4,-99.9,-100.00,West,270,3.0,10.0,-999,0.00,,,-99.99,WeatherLink 5.4,2013-03-21 13:13:00,
2013-03-21 09:18:00,112.4,-99.9,-100.00,West,270,3.0,10.0,-999,0.00,,,-99.99,WeatherLink 5.4,2013-03-21 13:18:00,
2013-03-21 09:28:00,112.4,-99.9,-100.00,West,270,3.0,10.0,-999,0.00,,,-99.99,WeatherLink 5.4,2013-03-21 13:28:00,
2013-03-21 09:33:00,112.4,-99.9,-100.00,West,270,3.0,10.0,-999,0.00,,,-99.99,WeatherLink 5.4,2013-03-21 13:33:00,
2013-03-21 09:43:00,112.4,-99.9,-100.00,West,270,4.0,11.0,-999,0.00,,,-99.99,WeatherLink 5.4,2013-03-21 13:43:00,
2013-03-21 09:53:00,112.4,-99.9,-100.00,West,270,4.0,11.0,-999,0.00,,,-99.99,WeatherLink 5.4,2013-03-21 13:53:00,
2013-03-21 10:03:00,112.4,-99.9,-100.00,West,270,4.0,11.0,-999,0.00,,,-99.99,WeatherLink 5.4,2013-03-21 14:03:00,
2013-03-21 10:13:00,112.6,-99.9,-100.00,West,270,4.0,12.0,-999,0.01,,,-99.99,WeatherLink 5.4,2013-03-21 14:13:00,
2013-03-21 10:23:00,112.6,-99.9,-100.00,West,270,4.0,12.0,-999,0.01,,,-99.99,WeatherLink 5.4,2013-03-21 14:23:00,
2013-03-21 10:28:00,112.6,-99.9,-100.00,West,270,4.0,12.0,-999,0.01,,,-99.99,WeatherLink 5.4,2013-03-21 14:28:00,
2013-03-21 10:33:00,112.6,-99.9,-100.00,West,270,4.0,12.0,-999,0.01,,,-99.99,WeatherLink 5.4,2013-03-21 14:33:00,
2013-03-21 10:43:00,112.5,-99.9,-100.00,West,270,4.0,11.0,-999,0.01,,,-99.99,WeatherLink 5.4,2013-03-21 14:43:00,
2013-03-21 10:48:00,112.5,-99.9,-100.00,West,270,4.0,11.0,-999,0.01,,,-99.99,WeatherLink 5.4,2013-03-21 14:48:00,
2013-03-21 10:58:00,112.5,-99.9,-100.00,West,270,4.0,11.0,-999,0.01,,,-99.99,WeatherLink 5.4,2013-03-21 14:58:00,
2013-03-21 11:03:00,112.5,-99.9,-100.00,West,270,4.0,11.0,-999,0.01,,,-99.99,WeatherLink 5.4,2013-03-21 15:03:00,
2013-03-21 11:13:00,112.4,-99.9,-100.00,West,270,4.0,11.0,-999,0.00,,,-99.99,WeatherLink 5.4,2013-03-21 15:13:00,
2013-03-21 11:23:00,112.4,-99.9,-100.00,West,270,4.0,11.0,-999,0.00,,,-99.99,WeatherLink 5.4,2013-03-21 15:23:00,
2013-03-21 11:33:00,112.4,-99.9,-100.00,West,270,4.0,11.0,-999,0.00,,,-99.99,WeatherLink 5.4,2013-03-21 15:33:00,
2013-03-21 11:43:00,113.3,-99.9,-100.00,West,270,5.0,12.0,-999,0.00,,,-99.99,WeatherLink 5.4,2013-03-21 15:43:00,
2013-03-21 11:53:00,113.3,-99.9,-100.00,West,270,5.0,12.0,-999,0.00,,,-99.99,WeatherLink 5.4,2013-03-21 15:53:00,
2013-03-21 12:03:00,113.3,-99.9,-100.00,West,270,5.0,12.0,-999,0.00,,,-99.99,WeatherLink 5.4,2013-03-21 16:03:00,
2013-03-21 12:13:00,116.5,-99.9,-100.00,WSW,247,5.0,14.0,-999,0.00,,,-99.99,WeatherLink 5.4,2013-03-21 16:13:00,
2013-03-21 12:18:00,116.5,-99.9,-100.00,WSW,247,5.0,14.0,-999,0.00,,,-99.99,WeatherLink 5.4,2013-03-21 16:18:00,
2013-03-21 12:23:00,116.5,-99.9,-100.00,WSW,247,5.0,14.0,-999,0.00,,,-99.99,WeatherLink 5.4,2013-03-21 16:23:00,
2013-03-21 12:33:00,116.5,-99.9,-100.00,WSW,247,5.0,14.0,-999,0.00,,,-99.99,WeatherLink 5.4,2013-03-21 16:33:00,
2013-03-21 12:43:00,117.3,-99.9,-100.00,West,270,6.0,16.0,-999,0.00,,,-99.99,WeatherLink 5.4,2013-03-21 16:43:00,
2013-03-21 12:53:00,117.3,-99.9,-100.00,West,270,6.0,16.0,-999,0.00,,,-99.99,WeatherLink 5.4,2013-03-21 16:53:00,
2013-03-21 13:03:00,117.3,-99.9,-100.00,West,270,6.0,16.0,-999,0.00,,,-99.99,WeatherLink 5.4,2013-03-21 17:03:00,
2013-03-21 13:13:00,117.6,-99.9,-100.00,WNW,292,6.0,14.0,-999,0.00,,,-99.99,WeatherLink 5.4,2013-03-21 17:13:00,
2013-03-21 13:23:00,117.6,-99.9,-100.00,WNW,292,6.0,14.0,-999,0.00,,,-99.99,WeatherLink 5.4,2013-03-21 17:23:00,
2013-03-21 13:33:00,117.6,-99.9,-100.00,WNW,292,6.0,14.0,-999,0.00,,,-99.99,WeatherLink 5.4,2013-03-21 17:33:00,
2013-03-21 13:43:00,117.0,-99.9,-100.00,WSW,247,6.0,16.0,-999,0.00,,,-99.99,WeatherLink 5.4,2013-03-21 17:43:00,
2013-03-21 13:53:00,117.0,-99.9,-100.00,WSW,247,6.0,16.0,-999,0.00,,,-99.99,WeatherLink 5.4,2013-03-21 17:53:00,
2013-03-21 13:58:00,117.0,-99.9,-100.00,WSW,247,6.0,16.0,-999,0.00,,,-99.99,WeatherLink 5.4,2013-03-21 17:58:00,
2013-03-21 14:03:00,117.0,-99.9,-100.00,WSW,247,6.0,16.0,-999,0.00,,,-99.99,WeatherLink 5.4,2013-03-21 18:03:00,
2013-03-21 14:13:00,117.0,-99.9,-100.00,West,270,6.0,16.0,-999,0.00,,,-99.99,WeatherLink 5.4,2013-03-21 18:13:00,
2013-03-21 14:23:00,117.0,-99.9,-100.00,West,270,6.0,16.0,-999,0.00,,,-99.99,WeatherLink 5.4,2013-03-21 18:23:00,
2013-03-21 14:33:00,117.0,-99.9,-100.00,West,270,6.0,16.0,-999,0.00,,,-99.99,WeatherLink 5.4,2013-03-21 18:33:00,
2013-03-21 14:43:00,116.9,-99.9,-100.00,West,270,5.0,13.0,-999,0.00,,,-99.99,WeatherLink 5.4,2013-03-21 18:43:00,
2013-03-21 14:48:00,116.9,-99.9,-100.00,West,270,5.0,13.0,-999,0.00,,,-99.99,WeatherLink 5.4,2013-03-21 18:48:00,
2013-03-21 14:53:00,116.9,-99.9,-100.00,West,270,5.0,13.0,-999,0.00,,,-99.99,WeatherLink 5.4,2013-03-21 18:53:00,
2013-03-21 15:03:00,116.9,-99.9,-100.00,West,270,5.0,13.0,-999,0.00,,,-99.99,WeatherLink 5.4,2013-03-21 19:03:00,
2013-03-21 15:08:00,116.5,-99.9,-100.00,WNW,292,4.0,12.0,-999,0.00,,,-99.99,WeatherLink 5.4,2013-03-21 19:08:00,
2013-03-21 15:18:00,116.5,-99.9,-100.00,WNW,292,4.0,12.0,-999,0.00,,,-99.99,WeatherLink 5.4,2013-03-21 19:18:00,
2013-03-21 15:28:00,116.5,-99.9,-100.00,WNW,292,4.0,12.0,-999,0.00,,,-99.99,WeatherLink 5.4,2013-03-21 19:28:00,
2013-03-21 15:34:00,116.5,-99.9,-100.00,WNW,292,4.0,12.0,-999,0.00,,,-99.99,WeatherLink 5.4,2013-03-21 19:34:00,
2013-03-21 15:43:00,115.6,-99.9,-100.00,West,270,5.0,12.0,-999,0.00,,,-99.99,WeatherLink 5.4,2013-03-21 19:43:00,
2013-03-21 15:53:00,115.6,-99.9,-100.00,West,270,5.0,12.0,-999,0.00,,,-99.99,WeatherLink 5.4,2013-03-21 19:53:00,
2013-03-21 16:03:00,115.6,-99.9,-100.00,West,270,5.0,12.0,-999,0.00,,,-99.99,WeatherLink 5.4,2013-03-21 20:03:00,
2013-03-21 16:13:00,111.5,-99.9,-100.00,West,270,4.0,11.0,-999,0.00,,,-99.99,WeatherLink 5.4,2013-03-21 20:13:00,
2013-03-21 16:23:00,111.5,-99.9,-100.00,West,270,4.0,11.0,-999,0.00,,,-99.99,WeatherLink 5.4,2013-03-21 20:23:00,
2013-03-21 16:28:00,111.5,-99.9,-100.00,West,270,4.0,11.0,-999,0.00,,,-99.99,WeatherLink 5.4,2013-03-21 20:28:00,
2013-03-21 16:38:00,110.9,-99.9,-100.00,WNW,292,3.0,8.0,-999,0.00,,,-99.99,WeatherLink 5.4,2013-03-21 20:38:00,
2013-03-21 16:43:00,110.9,-99.9,-100.00,WNW,292,3.0,8.0,-999,0.00,,,-99.99,WeatherLink 5.4,2013-03-21 20:43:00,
2013-03-21 16:48:00,110.9,-99.9,-100.00,WNW,292,3.0,8.0,-999,0.00,,,-99.99,WeatherLink 5.4,2013-03-21 20:48:00,
2013-03-21 16:58:00,110.9,-99.9,-100.00,WNW,292,3.0,8.0,-999,0.00,,,-99.99,WeatherLink 5.4,2013-03-21 20:58:00,
2013-03-21 17:03:00,110.9,-99.9,-100.00,WNW,292,3.0,8.0,-999,0.00,,,-99.99,WeatherLink 5.4,2013-03-21 21:03:00,
2013-03-21 17:13:00,110.8,-99.9,-100.00,West,270,4.0,14.0,-999,0.00,,,-99.99,WeatherLink 5.4,2013-03-21 21:13:00,
2013-03-21 17:18:00,110.8,-99.9,-100.00,West,270,4.0,14.0,-999,0.00,,,-99.99,WeatherLink 5.4,2013-03-21 21:18:00,
2013-03-21 17:23:00,110.8,-99.9,-100.00,West,270,4.0,14.0,-999,0.00,,,-99.99,WeatherLink 5.4,2013-03-21 21:23:00,
2013-03-21 17:33:00,110.8,-99.9,-100.00,West,270,4.0,14.0,-999,0.00,,,-99.99,WeatherLink 5.4,2013-03-21 21:33:00,
2013-03-21 17:43:00,110.9,-99.9,-100.00,WNW,292,5.0,12.0,-999,0.00,,,-99.99,WeatherLink 5.4,2013-03-21 21:43:00,
2013-03-21 17:53:00,110.9,-99.9,-100.00,WNW,292,5.0,12.0,-999,0.00,,,-99.99,WeatherLink 5.4,2013-03-21 21:53:00,
2013-03-21 18:03:00,110.9,-99.9,-100.00,WNW,292,5.0,12.0,-999,0.00,,,-99.99,WeatherLink 5.4,2013-03-21 22:03:00,
2013-03-21 18:13:00,110.1,-99.9,-100.00,WNW,292,4.0,13.0,-999,0.00,,,-99.99,WeatherLink 5.4,2013-03-21 22:13:00,
2013-03-21 18:18:00,110.1,-99.9,-100.00,WNW,292,4.0,13.0,-999,0.00,,,-99.99,WeatherLink 5.4,2013-03-21 22:18:00,
2013-03-21 18:28:00,110.1,-99.9,-100.00,WNW,292,4.0,13.0,-999,0.00,,,-99.99,WeatherLink 5.4,2013-03-21 22:28:00,
2013-03-21 18:33:00,110.5,-99.9,-100.00,WNW,292,5.0,16.0,-999,0.01,,,-99.99,WeatherLink 5.4,2013-03-21 22:33:00,
2013-03-21 18:43:00,110.5,-99.9,-100.00,WNW,292,5.0,16.0,-999,0.01,,,-99.99,WeatherLink 5.4,2013-03-21 22:43:00,
2013-03-21 18:48:00,110.5,-99.9,-100.00,WNW,292,5.0,16.0,-999,0.01,,,-99.99,WeatherLink 5.4,2013-03-21 22:48:00,
2013-03-21 18:58:00,110.5,-99.9,-100.00,WNW,292,5.0,16.0,-999,0.01,,,-99.99,WeatherLink 5.4,2013-03-21 22:58:00,
2013-03-21 19:03:00,110.5,-99.9,-100.00,WNW,292,5.0,16.0,-999,0.01,,,-99.99,WeatherLink 5.4,2013-03-21 23:03:00,
2013-03-21 19:13:00,110.7,-99.9,-100.00,WNW,292,4.0,12.0,-999,0.01,,,-99.99,WeatherLink 5.4,2013-03-21 23:13:00,
2013-03-21 19:18:00,110.7,-99.9,-100.00,WNW,292,4.0,12.0,-999,0.01,,,-99.99,WeatherLink 5.4,2013-03-21 23:18:00,
2013-03-21 19:28:00,110.7,-99.9,-100.00,WNW,292,4.0,12.0,-999,0.01,,,-99.99,WeatherLink 5.4,2013-03-21 23:28:00,
2013-03-21 19:38:00,109.6,-99.9,-100.00,NW,315,4.0,14.0,-999,0.00,,,-99.99,WeatherLink 5.4,2013-03-21 23:38:00,
2013-03-21 19:48:00,109.6,-99.9,-100.00,NW,315,4.0,14.0,-999,0.00,,,-99.99,WeatherLink 5.4,2013-03-21 23:48:00,
2013-03-21 19:53:00,109.6,-99.9,-100.00,NW,315,4.0,14.0,-999,0.00,,,-99.99,WeatherLink 5.4,2013-03-21 23:53:00,
2013-03-21 20:03:00,109.6,-99.9,-100.00,NW,315,4.0,14.0,-999,0.00,,,-99.99,WeatherLink 5.4,2013-03-22 00:03:00,
2013-03-21 20:13:00,108.6,-99.9,-100.00,WNW,292,5.0,12.0,-999,0.00,,,-99.99,WeatherLink 5.4,2013-03-22 00:13:00,
2013-03-21 20:23:00,108.6,-99.9,-100.00,WNW,292,5.0,12.0,-999,0.00,,,-99.99,WeatherLink 5.4,2013-03-22 00:23:00,
2013-03-21 20:33:00,108.6,-99.9,-100.00,WNW,292,5.0,12.0,-999,0.00,,,-99.99,WeatherLink 5.4,2013-03-22 00:33:00,
2013-03-21 20:43:00,107.6,-99.9,-100.00,WNW,292,3.0,9.0,-999,0.00,,,-99.99,WeatherLink 5.4,2013-03-22 00:43:00,
2013-03-21 20:53:00,107.6,-99.9,-100.00,WNW,292,3.0,9.0,-999,0.00,,,-99.99,WeatherLink 5.4,2013-03-22 00:53:00,
2013-03-21 21:03:00,107.6,-99.9,-100.00,WNW,292,3.0,9.0,-999,0.00,,,-99.99,WeatherLink 5.4,2013-03-22 01:03:00,
2013-03-21 21:13:00,107.6,-99.9,-100.00,West,270,4.0,10.0,-999,0.01,,,-99.99,WeatherLink 5.4,2013-03-22 01:13:00,
2013-03-21 21:23:00,107.6,-99.9,-100.00,West,270,4.0,10.0,-999,0.01,,,-99.99,WeatherLink 5.4,2013-03-22 01:23:00,
2013-03-21 21:33:00,107.6,-99.9,-100.00,West,270,4.0,10.0,-999,0.01,,,-99.99,WeatherLink 5.4,2013-03-22 01:33:00,
2013-03-21 21:43:00,112.7,-99.9,-100.00,West,270,4.0,11.0,-999,0.01,,,-99.99,WeatherLink 5.4,2013-03-22 01:43:00,
2013-03-21 21:53:00,112.7,-99.9,-100.00,West,270,4.0,11.0,-999,0.01,,,-99.99,WeatherLink 5.4,2013-03-22 01:53:00,
2013-03-21 22:03:00,112.7,-99.9,-100.00,West,270,4.0,11.0,-999,0.01,,,-99.99,WeatherLink 5.4,2013-03-22 02:03:00,
2013-03-21 22:13:00,117.4,-99.9,-100.00,West,270,4.0,10.0,-999,0.01,,,-99.99,WeatherLink 5.4,2013-03-22 02:13:00,
2013-03-21 22:23:00,117.4,-99.9,-100.00,West,270,4.0,10.0,-999,0.01,,,-99.99,WeatherLink 5.4,2013-03-22 02:23:00,
2013-03-21 22:33:00,117.4,-99.9,-100.00,West,270,4.0,10.0,-999,0.01,,,-99.99,WeatherLink 5.4,2013-03-22 02:33:00,
2013-03-21 22:43:00,116.6,-99.9,-100.00,West,270,4.0,10.0,-999,0.01,,,-99.99,WeatherLink 5.4,2013-03-22 02:43:00,
2013-03-21 22:53:00,116.6,-99.9,-100.00,West,270,4.0,10.0,-999,0.01,,,-99.99,WeatherLink 5.4,2013-03-22 02:53:00,
2013-03-21 23:03:00,116.6,-99.9,-100.00,West,270,4.0,10.0,-999,0.01,,,-99.99,WeatherLink 5.4,2013-03-22 03:03:00,
2013-03-21 23:13:00,116.1,-99.9,-100.00,West,270,4.0,10.0,-999,0.00,,,-99.99,WeatherLink 5.4,2013-03-22 03:13:00,
2013-03-21 23:23:00,116.1,-99.9,-100.00,West,270,4.0,10.0,-999,0.00,,,-99.99,WeatherLink 5.4,2013-03-22 03:23:00,
2013-03-21 23:28:00,116.1,-99.9,-100.00,West,270,4.0,10.0,-999,0.00,,,-99.99,WeatherLink 5.4,2013-03-22 03:28:00,
2013-03-21 23:38:00,115.8,-99.9,-100.00,West,270,4.0,11.0,-999,0.00,,,-99.99,WeatherLink 5.4,2013-03-22 03:38:00,
2013-03-21 23:48:00,115.8,-99.9,-100.00,West,270,4.0,11.0,-999,0.00,,,-99.99,WeatherLink 5.4,2013-03-22 03:48:00,
2013-03-21 23:58:00,115.8,-99.9,-100.00,West,270,4.0,11.0,-999,0.00,,,-99.99,WeatherLink 5.4,2013-03-22 03:58:00,